OPS 4682 DEB, 52784

Orbit data source: Space-Track

OPS 4682 DEB, 52784 is space debris in LEO originally from a launch on Sat, 03 Apr 1965 UTC launched from the Air Force Western Test Range (AFWTR). Debris objects in space refer to the collection of defunct objects orbiting the Earth. Examples of debris include non-operational satellites, rocket bodies, and fragments generated from explosions, collisions, or faulty payload assembly.

Loading next visibility...
Identifier
52784, 1965-027HA
Orbit
LEO
Country
Flag of USUS
Related business
Manufacturer
Unknown
Mission
Spacecraft
Bus & Motor
Unknown
Mass
Unknown
Launch date (UTC)
1965-04-03 (61 years ago)
Launch vehicle
Unknown
Launch site
Air Force Western Test Range (AFWTR)
Object type
Payload
Rocket body
Debris
Shape & HBR
Unknown
Radar Cross Section
Small (<0.1 m²)

Expand to show TLE details & history
Last TLE update: 3 days ago

TLE from 3 days ago
0 OPS 4682 DEB
1 52784U 65027HA  26205.88489722  .00000283  00000-0  94588-3 0  9999
2 52784  90.2433   8.4627 0030954 359.5669   0.5420 12.97747760546477
Epoch: 2026-07-24T21:14Z
TLE epoch observation values (Epoch: 2026-07-24T21:14:15.119Z)
Latitude
-0.00003°
Longitude
107.29459°
Altitude
1,250.124 km
Speed
7.241 km/s
True Right ascension
00h 33m 51s
True Declination
0° 00' 00"
Sunlit
Object was in daylight at epoch
Visualization orbit readout
Latitude
Unknown
Longitude
Unknown
Altitude
Unknown
Speed
Unknown
Apparent Right ascension
Unknown
Apparent Declination
Unknown
Sunlit
N/A
Visualization observer readout
Local Sidereal Time
23:11:14
Azimuth
Unknown
Elevation
Unknown
Doppler factor
Unknown
Orbital elements
Apogee altitude
1,291.722 km
Perigee altitude
1,244.386 km
Semi-major axis
7,646.191 km
Eccentricity
0.0031
Inclination
90.2433°
RAAN
8.4627°
Arg. of periapsis
359.5669°
True anomaly
0.54537°
Mean anomaly
0.542°
Eccentric anomaly
0.54368°
Mean motion
3.2462 °/min
Orbital period
110.9 mins
BSTAR
0.00094588
Loading maneuver chart data...
Computing Atmospheric mass density...
Loading historical data...
Loading historical data...
Loading historical data...
Loading historical data...
Loading historical data...
Loading historical data...
Loading historical data...

Documentation

Showing up to 5 results
|